Miscellaneous Local Product
Issued by NWS North Platte, NE

Home | Current Version | Previous Version | Text Only | Print | Product List | Glossary On
Versions: 1 2 3 4 5 6 7 8 9 10 11 12 13 14 15 16 17 18 19 20 21 22 23 24 25 26 27 28 29 30 31 32 33 34 35 36 37 38 39 40 41 42 43 44 45 46 47 48 49 50
433
AXUS43 KLBF 061610
MISLBF


WESTERN AND NORTH CENTRAL NEBRASKA HOURLY WEATHER ROUNDUP
NATIONAL WEATHER SERVICE NORTH PLATTE NE
1000 AM CST TUE DEC 06 2016

NOTE: "FAIR" INDICATES FEW OR NO CLOUDS BELOW 12,000 FEET WITH NO
SIGNIFICANT WEATHER AND/OR OBSTRUCTIONS TO VISIBILITY.

NOTE: STATIONS NOT REPORTING VARIABLES SUCH AS SKY/WEATHER OR
PRESSURE ARE PROVIDED BY RAWS AND APRS NETWORKS AND ARE NOT UNDER
NATIONAL WEATHER SERVICE QUALITY CONTROL.

...OBSERVATIONS IN AND NEAR THE EASTERN PANHANDLE OF NEBRASKA...

CITY           SKY/WX    TMP DP  RH WIND       PRES   REMARKS
PINE RIDGE     SUNNY     11   4  73 W7        30.00R WCI   0
CHADRON        SUNNY     15   4  61 W15       30.04R WCI   0
ALLIANCE       SUNNY     11   4  73 NW5       29.99R WCI   3
SIDNEY         SUNNY     16   2  54 NW10      29.98R WCI   4
CRESCENT LAKE    N/A     16   5  60 NW10        N/A  WCI   4
$$

...OBSERVATIONS IN NORTHERN NEBRASKA AND FAR SOUTHERN SOUTH DAKOTA...

CITY           SKY/WX    TMP DP  RH WIND       PRES   REMARKS
WINNER         FAIR      18   6  59 NW24G33   29.99R WCI   0
VALENTINE      SUNNY     16   4  59 W15       30.00R WCI   1
THEDFORD       SUNNY     23  10  59 NW18      30.01R WCI   8
AINSWORTH      SUNNY     18   7  62 NW16G22   30.00R WCI   3
O`NEILL        SUNNY     21   7  55 W25G32    29.99R WCI   4
ORD            SUNNY     23   8  52 NW15G24   30.02R WCI  10
BROKEN BOW     SUNNY     24   9  52 NW21      30.01R WCI   9
VALENTINE NWR    N/A     14   4  64 NW15        N/A  WCI  -1
BUTTE            N/A     17   8  67 W21G33      N/A  WCI   0
HALSEY           N/A     21   6  53 W12G18      N/A  WCI   9
CHAMBERS         N/A     22   5  48 N6          N/A  WCI  15
EWING            N/A     22   9  56 NW17G25     N/A  WCI   8
$$

...OBSERVATIONS IN SOUTHWEST NEBRASKA AND FAR NORTHEAST COLORADO...

CITY           SKY/WX    TMP DP  RH WIND       PRES   REMARKS
WRAY           FAIR      23   9  54 W10       30.05S WCI  12
HOLYOKE        FAIR      25  10  54 W12       30.03S WCI  14
IMPERIAL       SUNNY     20   5  52 W13       30.05R WCI   7
OGALLALA       SUNNY     19  10  68 W8        30.02S WCI   9
NORTH PLATTE   SUNNY     21   9  59 NW13      30.04R WCI   9
MCCOOK         SUNNY     23   8  52 W14       30.08R WCI  11
LEXINGTON      SUNNY     24  12  58 NW14      30.06R WCI  12
STAPLETON        N/A     21  10  62 CALM        N/A
GOTHENBURG       N/A     22   8  55 NW10        N/A  WCI  11
CALLAWAY         N/A     22  13  66 NW16        N/A  WCI   8
$$

...OBSERVATIONS IN CENTRAL LINCOLN COUNTY AREA...

CITY           SKY/WX    TMP DP  RH WIND       PRES   REMARKS
N.P. AIRPORT   SUNNY     21   9  59 NW13      30.04R WCI   9
N.P. DOWNTOWN    N/A     19  10  67 W6          N/A  WCI  11
N.P. SOUTHEAST   N/A     19   9  63 NW5G12      N/A  WCI  12
N.P. HILLCREST   N/A     20  13  73 NW8         N/A  WCI  10
$$

...SOME OBSERVATIONS FROM AROUND THE REGION...

CITY           SKY/WX    TMP DP  RH WIND       PRES   REMARKS
LARAMIE        SUNNY      5 -10  50 S8        29.83S WCI  -8
CHEYENNE       SUNNY     17 -16  22 NW10      29.89R WCI   5
DENVER         MOSUNNY   23   2  40 SE18      29.91F WCI   9
AKRON          SUNNY     18   0  45 W10       29.99R WCI   6
SCOTTSBLUFF    SUNNY     15   5  64 NW10      30.01R WCI   2
RAPID CITY     SUNNY     13   2  61 N21       29.97R WCI  -5
BISMARCK       LGT SNOW   9   7  92 NW25G33   29.85R VSB 1   WCI -12
PIERRE         PTSUNNY   12   5  73 NW38G45   29.96R BLWGSNOWWCI -12
SIOUX FALLS    FLURRIES  18   9  68 W29G38    29.87R WCI  -1
OMAHA          SUNNY     27  12  53 NW18G24   30.03R WCI  14
GRAND ISLAND   SUNNY     25  13  60 NW12      30.05R WCI  14
KANSAS CITY    MOSUNNY   33  15  47 NW17G26   30.02R WCI  22
WICHITA        SUNNY     34  19  54 N16G23    30.11R WCI  24
OKLAHOMA CITY  CLOUDY    38  23  55 N22G30    30.07R WCI  27
DALLAS         PTSUNNY   50  45  83 N13       29.97R
AMARILLO       CLOUDY    28  13  53 N13       30.10R WCI  17
DODGE CITY     CLOUDY    25  10  53 N13       30.11R WCI  14
HAYS           SUNNY     28  12  51 NW12      30.12R WCI  18
GOODLAND       SUNNY     22   7  52 W8        30.06R WCI  12
$$




USA.gov is the U.S. government's official web portal to all federal, state and local government web resources and services.